Regional Weather Roundup
Issued by NWS

Home | Current Version | Previous Version | Graphics & Text | Print | Product List | Glossary On
Versions: 1 2 3 4 5 6 7 8 9 10 11 12 13 14 15 16 17 18 19 20 21 22 23 24 25 26 27
000
ASUS45 KTFX 190210
RWRMT
MONTANA REGIONAL WEATHER ROUNDUP
NATIONAL WEATHER SERVICE GREAT FALLS MT
800 PM MDT WED OCT 18 2017

NOTE: "FAIR" INDICATES FEW OR NO CLOUDS BELOW 12000 FEET WITH NO
SIGNIFICANT WEATHER AND/OR OBSTRUCTIONS TO VISIBILITY.

MTZ001>007-043-190300-
WEST OF THE DIVIDE

CITY           SKY/WX    TMP DP  RH WIND       PRES   REMARKS
KALISPELL      LGT RAIN  53  44  71 S13       29.81F
MISSOULA       PTCLDY    52  40  63 NW6       29.87F
BUTTE          CLOUDY    53  30  41 CALM      29.96S
MULLAN PASS    LGT RAIN  38  35  89 SW14G29   29.89F WCI  30
DEER LODGE       N/A     54  30  40 CALM      29.92S
EUREKA           N/A     52  43  71 MISG      29.75F
HAMILTON         N/A     55  30  38 SE8       29.87S
LIBBY            N/A     45  45 100 W5        29.76F
$$

MTZ008-052>055-190300-
SOUTHWEST MONTANA

CITY           SKY/WX    TMP DP  RH WIND       PRES   REMARKS
BOZEMAN        CLOUDY    56  27  32 S10       29.92S
DILLON         CLOUDY    59  23  25 S14       29.96F
ENNIS          CLOUDY    54  25  32 S15G22    30.05S
THREE FORKS      N/A     62  24  23 S23       29.90F
$$

MTZ009-010-012-014-046-048-049-054-190300-
EAST SLOPES AND CENTRAL MONTANA

CITY           SKY/WX    TMP DP  RH WIND       PRES   REMARKS
CUT BANK       MOCLDY    54  37  52 SW37      29.69F
GREAT FALLS    CLOUDY    59  33  37 SW16      29.79F
MALMSTROM AFB  CLOUDY    58  35  42 SW15      29.79F
HELENA         CLOUDY    55  33  43 SE5       29.85S
BOWMANS CRNR     N/A     53  34  48 S24       29.80S
CHOTEAU          N/A     57  37  47 S10       29.79F
FAIRFIELD        N/A     55  34  45 S15       29.77F
POWER            N/A     55  35  46 S14       29.78F
RAYNESFORD     MOCLDY    57  32  39 W5        29.83F
ULM            MOCLDY    58  35  41 SW10      29.81F
$$

MTZ011-013-016-021-045-047-050-051-190300-
NORTH CENTRAL MONTANA

CITY           SKY/WX    TMP DP  RH WIND       PRES   REMARKS
HAVRE          CLOUDY    58  37  45 SW13      29.73F
LEWISTOWN      CLOUDY    57  29  34 SW6       29.85S
N BAR RANCH      N/A     48  27  43 NE5       29.90S
CHINOOK          N/A     52  27  37 E5        29.74S
DENTON           N/A     55  31  40 SW8       29.78F
GEYSER           N/A     58  31  35 SW8       29.82F
GRASS RANGE      N/A     47  32  56 SW8       29.81F
JUDITH GAP     MOCLDY    58  28  31 W5        29.88F
WINIFRED         N/A     52  32  46 MISG      29.81F
$$

MTZ017>020-022>027-061-062-190300-
NORTHEAST MONTANA

CITY           SKY/WX    TMP DP  RH WIND       PRES   REMARKS
GLASGOW        CLOUDY    45  28  51 E12       29.80F
JORDAN           N/A     50  28  42 E6        29.82F
SIDNEY         CLOUDY    46  25  43 SW7       29.88F
WOLF POINT     CLOUDY    42  23  46 NE5       29.84F
MALTA          CLEAR     54  28  37 S10       29.77F
PLENTYWOOD       N/A     46  18  31 CALM      29.85F
POPLAR           N/A     46  21  36 SE5       29.85F
$$

MTZ028>42-056>058-190300-
SOUTHCENTRAL AND SOUTHEAST MONTANA

CITY           SKY/WX    TMP DP  RH WIND       PRES   REMARKS
BAKER          PTCLDY    45  30  55 SE5       29.93S
BILLINGS       PTCLDY    55  34  45 SW6       29.88S
LIVINGSTON     CLOUDY    62  26  25 SW29G46   29.89F
MILES CITY     CLOUDY    54  30  40 SE6       29.86F
BIG TIMBER     CLEAR     59  23  25 SW9       29.92S
FORSYTH          N/A     52  28  40 CALM      29.85F
HARLOWTON      MOCLDY    58  27  30 MISG      29.88S
LAUREL           N/A     54  30  40 CALM      29.89S
$$

REGIONAL REPORTS...DAKOTAS

CITY           SKY/WX    TMP DP  RH WIND       PRES   REMARKS
WILLISTON      CLOUDY    39  25  57 CALM      29.88F
MINOT          CLOUDY    45  24  43 SW8       29.90S
DICKINSON      CLOUDY    41  25  53 S5        29.92F
BEACH            N/A     39  27  60 CALM      29.94F
CROSBY           N/A     36  21  55 SW7       29.87F WCI  30
TIOGA            N/A     39  23  52 S10       29.90S
WATFORD CITY     N/A     41  25  52 SW3       29.89F
BISMARCK       CLOUDY    44  25  47 CALM      29.97R
GRAND FORKS    PTCLDY    51  21  30 W16G23    29.86F
FARGO          CLEAR     48  23  37 W10       29.94S
BUFFALO SD       N/A     48  27  44 SE10      29.88F
RAPID CITY     CLEAR     51  28  41 SE6       29.99F
$$

REGIONAL REPORTS...WYOMING/IDAHO/WASHINGTON

CITY           SKY/WX    TMP DP  RH WIND       PRES   REMARKS
GILLETTE       CLOUDY    52  26  36 S10       29.95F
SHERIDAN       CLOUDY    52  30  43 VRB3      29.92R
BUFFALO WY     CLOUDY    59  10  14 W7        29.97S
CODY           CLOUDY    59  24  26 SW8       30.02S
YELLOWSTONE LA   N/A     40  25  55 CALM      30.21S
IDAHO FALLS    CLEAR     57  28  33 S7        30.09R
SALMON         CLOUDY    55  33  43 SE3       29.95R
BOISE          PTCLDY    63  27  25 SE10      29.92S
SPOKANE        LGT RAIN  52  51  97 S15G30    29.75F
$$

REGIONAL REPORTS...ALBERTA

CITY           SKY/WX    TMP DP  RH WIND       PRES   REMARKS
EDMONTON       CLEAR     43  25  49 SE10      29.43F
CALGARY        MOCLDY    46  28  49 S14       29.44F
MEDICINE HAT   MOCLDY    55  32  41 S12       29.62F
$$

REGIONAL REPORTS...SASKATCHEWAN

CITY           SKY/WX    TMP DP  RH WIND       PRES   REMARKS
SWIFT CURRENT  CLEAR     36  18  48 S12       29.72F WCI  27
REGINA         PTCLDY    34  14  44 S6        29.80F WCI  29
SASKATOON      MOCLDY    37  14  38 S6        29.72F
$$




USA.gov is the U.S. government's official web portal to all federal, state and local government web resources and services.